{"data":{"norad_id":61949,"intl_designator":"2024-209L","name":"STARLINK-11424 [DTC]","alt_names":[],"object_type":"PAYLOAD","status":"ACTIVE","operator":null,"country":"US","launch_date":"2024-11-14","launch_site_code":"AFWTR","launch_vehicle":null,"mission":null,"orbit_class":"UNKNOWN","rcs_meters":null,"size_class":null,"mass_kg":null,"dimensions":null,"purposes":["comms"],"wikipedia_slug":null,"has_3d_model":false,"image_url":null,"decayed_at":null,"tle_current":{"epoch":"2026-09-21T21:09:44.898624Z","epoch_age_seconds":66279,"freshness":"FRESH","line1":"1 61949U 24209L   26264.88176966  .00133521  00000+0  10892-2 0  9993","line2":"2 61949  53.1575 123.9909 0000890  90.2683 269.8437 15.69713081107496","mean_motion":15.69713081,"eccentricity":8.9e-5,"inclination_deg":53.1575,"raan_deg":123.9909,"arg_perigee_deg":90.2683,"mean_anomaly_deg":269.8437,"bstar":0.0010892,"rev_number":10749,"period_min":91.736510157808,"perigee_km":359.11826470244,"apogee_km":360.31760288065,"semimajor_km":6737.8549337915,"source":"CELESTRAK","updated_at":"2026-09-22T09:00:49.455598Z"}}}